THOR AGENA B R/B, 2174

Orbit data source: Space-Track

THOR AGENA B R/B, 2174 is space debris in SSO originally from a launch on Sun, 15 May 1966 UTC launched from the Air Force Western Test Range (AFWTR). Debris objects in space refer to the collection of defunct objects orbiting the Earth. Examples of debris include non-operational satellites, rocket bodies, and fragments generated from explosions, collisions, or faulty payload assembly.

Loading next visibility...
Identifier
2174, 1966-040B
Orbit
SSO
Country
Flag of USUS
Related business
Manufacturer
LMSC
Mission
Spacecraft
Bus & Motor
AGENA B, Unknown motor
Mass
600 kg wet, 600 kg dry
Launch date (UTC)
1966-05-15 (59 years ago)
Launch vehicle
Unknown
Launch site
Air Force Western Test Range (AFWTR)
Object type
Payload
Rocket body
Debris
Shape & HBR
Unknown
Radar Cross Section
Large (>1 m²)

Expand to show TLE details & history
Last TLE update: 9 hours ago

TLE from 9 hours ago
0 THOR AGENA B R/B
1 02174U 66040B   25292.27289852  .00000019  00000-0  12603-3 0  9998
2 02174 100.3135 211.1775 0055520 253.0650 226.3827 13.36282537897049
Epoch: 2025-10-19T06:32Z
TLE epoch observation values (Epoch: 2025-10-19T06:32:58.432Z)
Latitude
59.47558°
Longitude
-77.17564°
Altitude
1,161.994 km
Speed
7.264 km/s
True Right ascension
03h 16m 14s
True Declination
59° 19' 59"
Sunlit
Object was in full shadow at epoch
Visualization orbit readout
Latitude
Unknown
Longitude
Unknown
Altitude
Unknown
Speed
Unknown
Apparent Right ascension
Unknown
Apparent Declination
Unknown
Sunlit
N/A
Visualization observer readout
Local Sidereal Time
10:32:27
Azimuth
Unknown
Elevation
Unknown
Doppler factor
Unknown
Orbital elements
Apogee altitude
1,162.144 km
Perigee altitude
1,078.879 km
Semi-major axis
7,498.648 km
Eccentricity
0.00555
Inclination
100.3135°
RAAN
211.1775°
Arg. of periapsis
253.065°
True anomaly
225.92431°
Mean anomaly
226.3827°
Eccentric anomaly
226.15328°
Mean motion
3.34248 °/min
Orbital period
107.7 mins
BSTAR
0.00012603
Loading maneuver chart data...
Computing Atmospheric mass density...
Loading historical data...
Loading historical data...
Loading historical data...
Loading historical data...
Loading historical data...
Loading historical data...
Loading historical data...

Documentation

Showing up to 5 results
|